This demonstration page uses our WeatherBlox Daily Observations layout. Learn more.

Left ArrowRight Arrow

31.31129, -92.44514

Hourly Observations for December 9, 2021

Temp ( °F °C ) Dew Point ( °F °C ) Humidity (%) Winds ( mph kmh ) Pressure ( in mb ) Visibility ( mi km ) Precip ( " mm )
12:53 am 00:53 Cloudy 51 10.6 47 8.3 86 86 SE 5 7 29.99 1016 10 16 0.00 0.00
1:53 am 01:53 Cloudy 53 11.7 48 8.9 83 83 ESE 5 7 29.98 1015 10 16 0.00 0.00
2:53 am 02:53 Cloudy 54 12.2 49 9.4 83 83 SE 7 11 29.97 1015 10 16 0.00 0.00
3:23 am 03:23 Cloudy 54 12.2 49 9.4 83 83 ESE 7 11 29.96 1015 10 16 0.00 0.00
3:53 am 03:53 Cloudy 54 12.2 50 10 87 87 SSE 6 9 29.97 1015 10 16 0.00 0.00
4:53 am 04:53 Cloudy 55 12.8 51 10.6 87 87 SE 9 15 29.96 1014 10 16 0.00 0.00
5:53 am 05:53 Mostly Cloudy 56 13.3 51 10.6 84 84 SE 8 13 29.96 1015 10 16 0.00 0.00
6:00 am 06:00 Cloudy 56 13.3 51 10.6 84 84 SE 10 17 29.95 1014 10 16 0.00 0.00
6:09 am 06:09 Cloudy 56 13.3 51 10.6 84 84 SE 8 13 29.95 1014 10 16 0.00 0.00
6:38 am 06:38 Cloudy 57 13.9 52 11.1 83 83 SE 9 15 29.97 1015 10 16 0.00 0.00
6:45 am 06:45 Cloudy 57 13.9 52 11.1 83 83 SE 9 15 29.97 1015 10 16 0.00 0.00
6:53 am 06:53 Cloudy 56 13.3 52 11.1 87 87 SE 8 13 29.98 1015 10 16 0.00 0.00
7:04 am 07:04 Cloudy 56 13.3 52 11.1 87 87 SE 8 13 29.97 1015 10 16 0.00 0.00
7:43 am 07:43 Cloudy with Mist and Fog 56 13.3 53 11.7 90 90 SSE 8 13 29.97 1015 2 3 0.00 0.00
7:47 am 07:47 Cloudy with Mist and Fog 55 13 54 12 94 94 SSE 7 11 29.98 1015 1 2 0.00 0.00
7:53 am 07:53 Cloudy with Mist and Fog 56 13.3 54 12.2 93 93 SE 6 9 29.99 1016 1 2 0.00 0.00
8:00 am 08:00 Cloudy with Mist and Fog 56 13.3 54 12.2 93 93 SE 7 11 29.99 1016 2 3 0.00 0.00
8:04 am 08:04 Cloudy with Fog 56 13.3 54 12.2 93 93 SSE 7 11 29.99 1016 1 1 0.00 0.00
8:53 am 08:53 Mostly Cloudy with Fog 58 14.4 56 13.3 93 93 SSE 10 17 29.98 1015 1 1 0.00 0.00
9:06 am 09:06 Cloudy with Mist and Fog 58 14.4 57 13.9 97 97 SSE 10 17 29.98 1015 2 2 0.00 0.00
9:17 am 09:17 Cloudy with Mist and Fog 59 15 57 13.9 93 93 SSE 12 19 29.98 1015 3 4 0.00 0.00
9:35 am 09:35 Cloudy with Mist and Fog 60 15.6 57 13.9 90 90 SSE 9 15 29.97 1015 3 5 0.00 0.00
9:53 am 09:53 Cloudy with Mist and Fog 61 16.1 58 14.4 90 90 SSE 8 13 29.99 1016 3 5 0.00 0.00
10:35 am 10:35 Cloudy with Mist and Fog 63 17.2 60 15.6 90 90 SSE 8 13 29.97 1015 5 8 0.00 0.00
10:53 am 10:53 Cloudy with Mist and Fog 64 17.8 61 16.1 90 90 S 10 17 29.98 1015 5 8 0.00 0.00
11:53 am 11:53 Cloudy with Mist and Fog 66 18.9 62 16.7 87 87 S 10 17 29.95 1014 5 8 0.00 0.00
12:53 pm 12:53 Cloudy with Mist and Fog 68 20 64 17.8 87 87 SSE 9 15 29.92 1013 6 10 0.00 0.00
1:53 pm 13:53 Cloudy 72 22.2 67 19.4 84 84 S 7 11 29.90 1012 7 11 0.00 0.00
2:53 pm 14:53 Cloudy 75 23.9 68 20 79 79 SSE 7 11 29.88 1012 8 13 0.00 0.00
3:00 pm 15:00 Mostly Sunny 75 23.9 69 20.6 82 82 SSE 8 13 29.86 1011 8 13 0.00 0.00
3:29 pm 15:29 Mostly Cloudy 74 23.3 67 19.4 79 79 ESE 8 13 29.86 1011 7 11 0.00 0.00
3:46 pm 15:46 Partly Cloudy 74 23.3 67 19.4 79 79 ESE 7 11 29.86 1011 8 13 0.00 0.00
3:53 pm 15:53 Partly Cloudy 74 23.3 68 20 82 82 ESE 6 9 29.87 1011 8 13 0.00 0.00
4:53 pm 16:53 Mostly Cloudy 73 22.8 68 20 84 84 SSE 7 11 29.87 1012 7 11 0.00 0.00
5:53 pm 17:53 Clear 75 23.9 69 20.6 82 82 S 8 13 29.88 1012 9 14 0.00 0.00
6:53 pm 18:53 Mostly Clear 75 23.9 70 21.1 84 84 S 7 11 29.90 1013 8 13 0.00 0.00
7:22 pm 19:22 Mostly Cloudy 75 23.9 70 21.1 84 84 S 10 17 29.89 1012 8 13 0.00 0.00
7:53 pm 19:53 Mostly Cloudy 75 23.9 70 21.1 84 84 SSW 13 20 29.90 1013 8 13 0.00 0.00
8:39 pm 20:39 Cloudy 74 23.3 70 21.1 88 88 SSW 12 19 29.90 1012 8 13 0.00 0.00
8:53 pm 20:53 Cloudy 75 23.9 70 21.1 84 84 S 10 17 29.90 1013 8 13 0.00 0.00
9:53 pm 21:53 Cloudy 75 23.9 70 21.1 84 84 S 13 20 29.90 1012 9 14 0.00 0.00
10:50 pm 22:50 Cloudy 73 23 70 21 89 89 S 12 19 29.90 1012 9 14 0.00 0.00
10:53 pm 22:53 Cloudy 74 23.3 70 21.1 88 88 S 12 19 29.91 1013 9 14 0.00 0.00
11:53 pm 23:53 Cloudy 74 23.3 69 20.6 85 85 S 8 13 29.90 1012 10 16 0.00 0.00

Powered by AerisWeather